Orbital Elements
Epoch 2006 Aug. 13.0 TT = JDT 2453960.5
T 2006 Aug. 7.4552 TT MPCN
q 1.851739 (2000.0) P Q
n 0.1414494 Peri. 276.3267 +0.8688912 -0.4809509
a 3.648116 Node 112.4745 +0.4893110 +0.7987428
e 0.492412 Incl. 7.2809 +0.0748520 +0.3615192
P 6.97
From 262 observations 1931-2000, mean residual 0".9. Nongravitational
parameters A1 = +0.02, A2 = -0.0005.
|